Location: Newark
(9.5976°N, 77.1728°E)
Time: 01:38:43
(UTC+00:00)

N. Korean satellite - Visible Passes

Search period start: 14 December 2019 00:00
Search period end: 24 December 2019 00:00
Orbit: 455 x 507 km, 97.2° (Epoch: 13 December)

Date Brightness Start Highest point End Pass type
(mag) Time Alt. Az. Time Alt. Az. Time Alt. Az.
14 Dec 6.7 00:20:13 10° NNE 00:23:38 73° E 00:27:02 10° S visible
14 Dec 9.0 23:55:23 10° NE 23:58:14 24° E 00:01:03 10° SSE visible
16 Dec 9.8 12:55:33 10° SSW 12:58:16 19° W 13:00:59 10° NW visible
18 Dec 7.5 00:11:55 10° NNE 00:15:13 50° E 00:18:33 10° S visible
18 Dec 9.5 23:47:24 10° NE 23:49:49 18° E 23:52:13 10° SE visible
19 Dec 10.5 13:14:41 10° WSW 13:15:18 10° W 13:15:56 10° W visible
21 Dec 6.3 00:28:49 10° N 00:32:12 75° W 00:35:37 10° SSW visible
22 Dec 8.2 00:03:40 10° NNE 00:06:48 35° E 00:09:57 10° SSE visible
22 Dec 9.8 23:39:38 10° ENE 23:41:23 13° E 23:43:08 10° SE visible
23 Dec 10.0 13:04:57 10° SW 13:06:55 14° W 13:08:53 10° WNW visible
